Wind_Speed
14 14 13 12 11 11 11 11 10 10 9 9 8 8 7 6 6 6 6 6 6 6 6 6 7 7 6 6 6 6 6 6 5 4 4 3 3 4 4 5 5 5 6
14 14 14 13 12 11 11 11 10 9 9 9 8 8 8 7 7 7 7 6 6 6 6 6 6 6 6 6 6 6 5 5 4 4 3 3 4 4 4 4 4 5 5
14 14 14 13 13 12 11 11 10 9 9 9 9 8 8 7 7 7 7 7 6 6 6 6 5 6 6 6 6 6 5 4 4 4 4 4 4 3 4 4 4 5 5
14 13 14 14 14 13 12 12 11 10 10 10 10 9 8 8 8 7 7 7 7 6 6 6 6 6 6 6 6 6 5 4 4 3 3 4 4 3 4 4 5 5 5
15 15 14 15 15 14 13 13 12 12 11 11 11 10 9 8 8 8 7 7 7 7 6 6 6 6 6 6 6 5 5 5 4 4 4 4 4 4 5 5 5 5 6
16 16 16 16 16 15 14 13 12 12 12 12 11 10 10 9 8 7 7 7 7 7 6 6 6 6 6 6 5 5 5 5 5 5 5 5 5 5 5 6 6 6 6
16 16 16 16 16 15 15 14 13 12 12 11 11 10 9 9 9 8 7 6 6 7 7 7 6 6 6 6 6 6 6 5 5 6 6 6 6 6 6 6 6 6 6
15 16 15 16 16 15 15 14 14 13 12 11 10 10 10 10 9 8 7 7 6 7 6 6 6 6 6 6 6 6 6 6 6 7 6 6 7 7 7 6 6 6 6
14 14 14 14 15 16 15 14 13 12 12 12 11 11 10 10 10 9 8 8 8 7 7 7 7 7 6 6 6 6 6 7 7 7 6 7 7 6 6 6 6 7 8
14 14 13 13 14 15 15 14 13 13 13 13 12 11 11 11 11 10 10 9 9 8 7 7 7 7 7 7 6 7 7 7 7 7 7 7 6 6 7 7 8 8 8
13 14 15 14 15 15 15 14 14 13 13 13 12 12 12 12 12 11 10 9 9 9 8 7 7 7 8 8 7 7 7 8 8 8 7 7 7 7 7 8 9 9 10
13 13 14 14 15 15 15 15 14 14 14 13 13 13 12 12 12 12 11 11 10 9 9 8 8 8 8 8 8 8 9 9 9 8 8 8 8 9 9 9 10 11 11
13 13 12 13 14 14 14 15 15 15 14 14 13 13 13 12 13 13 12 12 11 11 11 10 10 10 9 8 9 9 10 10 9 9 9 10 10 10 11 11 11 12 12
13 13 13 14 14 14 15 15 15 15 15 14 14 14 13 13 13 14 13 12 12 12 12 11 11 11 10 10 10 10 11 11 10 11 11 11 11 11 12 13 13 13 14
13 13 13 13 14 14 15 16 16 16 16 15 14 14 14 14 14 14 13 13 13 13 13 12 12 12 11 12 12 12 12 12 12 12 12 12 13 13 14 14 14 15 16
13 13 13 13 13 14 15 15 16 16 16 15 15 15 14 14 14 14 13 14 14 14 15 13 13 13 13 13 13 14 13 13 13 13 14 14 14 15 15 16 16 17 17
14 14 14 13 14 14 15 15 15 15 16 16 15 16 15 14 14 14 15 15 15 14 14 14 14 14 14 14 15 15 15 16 16 16 16 16 16 17 17 17 18 19 19
14 15 15 15 15 15 15 15 16 16 16 16 15 15 15 15 15 15 16 16 15 15 15 15 15 16 16 16 16 17 17 17 18 18 18 18 18 19 19 20 20 20 21
15 16 16 16 15 15 15 16 16 17 16 16 16 16 15 15 15 15 16 16 16 16 16 17 17 18 18 19 19 19 19 19 19 20 20 20 20 20 21 22 22 22 23
15 15 16 16 16 16 16 16 16 16 17 16 16 16 16 16 15 15 15 15 15 16 17 18 19 19 19 20 20 20 20 20 21 21 21 22 22 22 23 24 24 24 25
15 15 16 16 17 16 16 16 17 17 17 17 16 16 16 16 16 16 15 16 16 17 17 19 19 19 20 20 20 21 21 22 22 22 22 23 24 24 25 25 25 26 27
15 15 15 16 16 16 16 16 16 16 16 17 17 17 17 16 16 16 17 17 18 19 19 19 20 20 21 21 22 22 23 23 23 23 23 24 24 25 26 27 27 28 29
15 15 15 16 17 17 17 17 17 17 17 17 18 18 17 17 17 18 19 19 19 20 20 20 20 21 22 22 23 24 24 24 24 24 24 25 26 26 27 28 29 30 31
16 16 16 17 18 18 18 17 17 17 18 18 19 19 19 19 18 19 19 20 20 20 21 21 21 22 23 23 24 24 25 25 25 26 27 28 28 28 29 30 31 32 32
16 17 17 18 19 18 19 18 18 18 18 19 20 20 20 20 20 20 21 21 22 22 22 22 22 23 23 24 24 24 25 26 27 27 28 29 30 31 31 32 32 32 32
17 17 17 17 18 18 18 18 19 19 19 19 19 20 20 21 21 21 22 22 23 24 24 23 23 23 24 25 26 26 27 28 28 29 30 31 31 32 33 33 33 34 35
Wind_Direction
241 237 235 231 228 224 217 218 222 228 229 232 238 245 247 258 273 287 296 304 311 314 317 319 324 330 330 330 329 327 325 324 319 313 306 298 287 277 270 271 271 267 265
240 234 233 230 227 221 217 222 226 230 229 231 236 242 246 259 271 281 290 298 306 310 314 318 320 324 329 332 334 335 331 326 318 313 308 301 296 288 282 280 277 276 273
239 233 231 226 224 219 216 224 227 231 231 236 239 241 249 260 269 280 285 292 299 306 309 311 315 317 324 330 334 339 340 335 323 315 313 312 310 299 294 289 283 281 281
233 230 229 225 223 220 221 226 228 233 236 240 246 246 251 259 268 279 287 288 291 298 304 307 308 311 318 327 331 330 332 336 330 321 316 310 306 303 300 294 291 288 288
234 230 227 228 227 223 223 227 230 235 238 239 246 248 253 260 268 273 278 286 288 291 296 299 301 301 308 317 325 328 332 332 328 324 320 312 307 302 301 301 299 297 294
233 231 229 229 229 226 224 227 232 236 238 240 243 245 251 257 265 273 279 280 286 295 295 291 296 294 299 306 313 320 324 323 323 324 319 317 314 310 307 304 301 300 296
232 233 231 231 226 226 228 229 231 234 236 240 240 242 248 255 261 267 275 280 282 287 292 292 291 292 295 298 303 308 311 314 317 318 318 317 315 311 308 303 303 300 300
236 234 232 230 227 229 230 232 236 236 234 235 240 247 249 254 260 264 271 276 280 283 289 291 289 292 296 295 301 303 306 309 312 313 313 314 315 313 309 303 303 302 301
238 236 233 232 230 229 230 233 238 239 237 237 239 245 249 254 258 262 264 266 272 278 283 288 286 285 285 290 295 300 304 308 306 307 308 312 311 310 310 307 306 306 303
237 234 233 232 230 230 232 233 235 238 238 239 242 246 251 257 260 261 262 266 271 276 278 282 282 281 278 281 291 303 306 303 302 301 301 304 299 298 301 303 304 304 302
236 234 233 232 232 229 230 233 235 236 236 238 243 248 251 253 256 259 261 261 264 267 274 277 284 285 283 283 289 299 307 308 305 302 303 301 296 295 295 295 297 299 301
236 233 232 234 233 231 231 234 235 235 237 239 245 247 249 252 255 259 261 261 260 264 269 272 278 284 284 284 290 296 301 303 303 302 298 297 297 294 292 292 294 297 299
234 232 233 235 236 234 233 235 236 237 238 241 246 247 250 253 254 258 262 261 260 262 267 269 272 278 279 281 288 292 297 298 297 297 299 301 298 296 295 294 295 298 299
235 233 233 234 236 235 235 238 239 239 239 240 244 244 247 253 257 257 258 260 259 263 269 268 271 274 275 281 286 289 292 294 295 294 295 299 301 300 297 295 295 296 297
240 238 235 236 239 240 240 240 241 239 238 239 241 245 249 254 257 257 258 261 261 265 267 268 269 271 277 280 284 285 287 290 290 292 294 296 298 298 298 297 298 297 297
243 242 240 241 241 242 243 242 241 238 238 239 241 244 247 251 254 256 260 263 263 266 265 264 268 272 275 278 281 282 282 285 288 289 289 291 294 295 296 297 296 296 298
245 245 242 243 244 245 244 242 239 238 237 239 242 243 246 251 253 256 262 263 263 264 259 262 268 273 275 277 280 280 281 282 285 287 288 288 289 289 292 294 296 297 297
246 246 246 246 249 247 244 242 238 236 237 240 241 243 245 249 253 257 261 263 264 263 263 265 268 272 274 276 279 281 281 283 286 286 287 287 287 288 289 291 293 295 296
249 248 247 246 247 247 245 241 238 237 240 244 244 244 246 249 253 257 261 262 264 265 265 266 268 271 273 276 279 280 281 283 285 286 286 285 285 286 286 288 290 292 294
252 250 248 245 245 247 246 240 238 240 242 245 245 245 247 249 252 256 262 265 267 270 269 267 269 271 274 277 280 279 279 281 282 284 285 287 287 286 286 288 289 291 293
255 253 250 247 246 246 246 244 242 243 243 243 244 245 246 249 253 256 261 267 270 272 274 272 270 272 277 280 280 280 281 281 283 284 285 286 287 287 287 288 290 292 293
257 255 251 247 247 248 247 244 244 245 244 243 243 245 247 251 255 258 264 270 273 274 275 277 273 272 276 278 280 281 282 283 285 286 286 286 288 289 288 289 290 292 293
257 253 251 250 250 250 248 246 246 246 245 245 244 244 248 252 258 262 267 270 274 275 276 278 278 275 274 277 279 280 281 283 284 286 286 287 288 289 289 289 290 291 292
255 252 252 253 253 251 249 249 250 249 246 247 248 248 252 257 261 266 270 273 274 276 279 280 280 278 277 278 280 280 282 283 284 286 287 288 288 289 289 289 290 291 292
252 254 257 255 253 251 249 249 252 254 253 254 252 252 254 259 263 268 270 273 275 277 279 281 283 282 281 282 285 286 285 286 287 288 289 290 290 289 289 289 290 291 292
253 255 258 256 254 251 251 252 252 253 253 255 256 256 258 263 267 270 273 274 277 277 277 280 283 283 282 284 286 287 287 287 287 288 289 291 291 290 290 289 290 291 292
Height
5859 5861 5864 5865 5867 5870 5872 5874 5876 5878 5880 5881 5882 5883 5884 5885 5886 5885 5885 5885 5884 5884 5883 5882 5881 5880 5879 5878 5877 5876 5875 5874 5874 5874 5874 5874 5874 5874 5875 5875 5876 5877 5877
5858 5860 5861 5864 5865 5868 5870 5873 5875 5877 5878 5879 5881 5882 5883 5884 5884 5884 5884 5884 5883 5883 5882 5881 5881 5880 5879 5878 5877 5875 5874 5874 5873 5873 5873 5873 5874 5874 5874 5875 5875 5876 5876
5855 5858 5860 5862 5864 5867 5869 5872 5874 5875 5877 5878 5879 5881 5882 5882 5883 5883 5883 5883 5882 5882 5881 5881 5880 5879 5878 5877 5876 5875 5874 5873 5873 5873 5873 5873 5873 5873 5874 5874 5875 5875 5875
5853 5855 5857 5860 5862 5865 5867 5870 5872 5873 5875 5876 5878 5879 5880 5881 5882 5882 5881 5881 5881 5881 5880 5880 5879 5878 5877 5877 5876 5875 5874 5873 5873 5872 5872 5872 5872 5873 5873 5874 5874 5874 5874
5850 5853 5855 5858 5860 5863 5865 5868 5870 5871 5873 5874 5876 5877 5878 5879 5880 5880 5880 5880 5880 5879 5879 5878 5878 5877 5877 5876 5875 5874 5874 5873 5872 5872 5872 5871 5871 5872 5872 5872 5872 5872 5872
5848 5850 5853 5855 5858 5860 5863 5865 5867 5869 5870 5872 5873 5875 5876 5877 5878 5878 5878 5878 5878 5878 5877 5877 5877 5876 5876 5875 5875 5874 5873 5873 5872 5871 5871 5871 5871 5870 5870 5870 5871 5870 5870
5846 5848 5850 5853 5856 5858 5860 5862 5864 5866 5868 5870 5871 5872 5874 5875 5876 5876 5877 5877 5877 5876 5876 5876 5875 5875 5875 5874 5874 5873 5873 5872 5872 5871 5871 5870 5870 5869 5869 5869 5869 5869 5869
5843 5845 5848 5850 5853 5855 5858 5860 5862 5864 5866 5867 5869 5871 5872 5873 5874 5874 5875 5875 5875 5875 5875 5874 5874 5874 5873 5873 5873 5872 5872 5871 5871 5870 5870 5869 5869 5868 5868 5868 5868 5867 5867
5841 5843 5845 5848 5850 5853 5855 5857 5859 5861 5863 5865 5867 5868 5870 5871 5871 5872 5873 5873 5873 5873 5873 5873 5872 5872 5872 5872 5872 5871 5871 5870 5869 5869 5868 5868 5867 5867 5867 5866 5866 5866 5866
5839 5841 5843 5845 5848 5850 5852 5855 5857 5859 5861 5862 5864 5866 5867 5868 5869 5870 5870 5871 5871 5871 5871 5871 5871 5871 5871 5870 5870 5870 5869 5869 5868 5868 5867 5866 5866 5866 5865 5865 5865 5865 5864
5836 5838 5840 5843 5845 5847 5849 5851 5854 5856 5858 5860 5861 5863 5864 5865 5866 5867 5868 5869 5869 5869 5869 5870 5869 5869 5869 5869 5869 5869 5868 5867 5867 5866 5865 5865 5864 5864 5864 5864 5863 5863 5862
5834 5835 5837 5840 5842 5844 5846 5849 5851 5853 5855 5857 5859 5860 5861 5863 5864 5864 5865 5866 5866 5867 5867 5868 5868 5868 5867 5867 5867 5867 5866 5866 5865 5864 5864 5863 5863 5862 5862 5861 5861 5860 5860
5831 5833 5835 5837 5839 5841 5843 5846 5848 5850 5852 5854 5855 5857 5858 5860 5861 5862 5862 5863 5864 5864 5865 5865 5865 5865 5865 5865 5865 5864 5864 5863 5863 5862 5862 5861 5861 5860 5860 5859 5858 5858 5857
5829 5830 5832 5834 5836 5838 5840 5842 5844 5846 5848 5850 5852 5853 5855 5856 5857 5858 5859 5860 5861 5861 5862 5862 5863 5863 5863 5863 5863 5862 5862 5861 5860 5860 5860 5859 5858 5858 5857 5856 5855 5854 5854
5826 5828 5829 5831 5833 5834 5836 5838 5840 5842 5845 5847 5849 5850 5852 5853 5854 5855 5856 5857 5858 5858 5859 5859 5860 5860 5860 5860 5860 5859 5859 5858 5858 5857 5857 5856 5855 5854 5853 5853 5852 5851 5850
5823 5825 5826 5828 5829 5831 5833 5834 5836 5839 5841 5843 5845 5847 5848 5849 5850 5851 5853 5853 5854 5855 5855 5856 5856 5857 5857 5856 5856 5856 5855 5855 5855 5854 5854 5853 5852 5851 5850 5849 5848 5847 5846
5819 5821 5823 5824 5825 5827 5829 5831 5833 5835 5837 5839 5841 5843 5844 5846 5847 5848 5849 5850 5850 5851 5852 5852 5853 5853 5853 5853 5852 5852 5852 5851 5851 5850 5850 5849 5848 5847 5846 5844 5843 5842 5841
5816 5817 5819 5821 5822 5823 5825 5827 5829 5831 5833 5835 5837 5839 5841 5842 5843 5844 5845 5846 5847 5847 5848 5848 5849 5849 5849 5849 5848 5848 5847 5847 5846 5846 5845 5844 5843 5842 5841 5840 5839 5837 5836
5812 5813 5815 5817 5818 5819 5821 5823 5825 5827 5829 5832 5833 5835 5837 5838 5839 5841 5841 5842 5843 5843 5843 5844 5844 5845 5844 5844 5844 5843 5843 5842 5841 5840 5840 5839 5838 5837 5836 5835 5833 5832 5830
5808 5809 5811 5812 5814 5816 5817 5819 5821 5823 5825 5827 5829 5831 5832 5834 5835 5836 5837 5838 5839 5839 5839 5839 5839 5839 5839 5839 5838 5838 5837 5837 5836 5835 5834 5833 5832 5831 5829 5828 5827 5826 5824
5804 5805 5807 5808 5810 5812 5813 5815 5817 5819 5821 5823 5825 5826 5828 5830 5831 5832 5833 5833 5834 5834 5834 5834 5834 5834 5834 5833 5833 5832 5831 5831 5830 5829 5828 5827 5825 5824 5822 5821 5820 5818 5817
5800 5801 5802 5804 5806 5807 5809 5811 5813 5815 5817 5819 5820 5822 5824 5825 5826 5827 5828 5829 5829 5829 5829 5829 5829 5828 5828 5827 5827 5826 5825 5825 5824 5823 5821 5820 5818 5817 5815 5814 5812 5810 5808
5796 5797 5798 5800 5801 5803 5805 5807 5808 5810 5812 5814 5816 5818 5819 5821 5822 5823 5823 5823 5824 5824 5824 5823 5823 5822 5822 5821 5820 5820 5819 5818 5817 5816 5814 5813 5811 5809 5808 5806 5804 5802 5800
5791 5793 5794 5795 5797 5798 5800 5802 5804 5805 5807 5809 5811 5813 5814 5816 5817 5817 5818 5818 5818 5818 5818 5817 5817 5816 5815 5815 5814 5813 5812 5811 5810 5808 5807 5805 5803 5801 5799 5798 5795 5793 5791
5787 5788 5789 5790 5792 5793 5795 5797 5799 5800 5802 5804 5806 5807 5809 5810 5811 5812 5812 5812 5812 5812 5811 5811 5810 5809 5809 5808 5807 5806 5805 5803 5802 5801 5799 5797 5795 5793 5791 5789 5786 5784 5781
5783 5784 5785 5786 5787 5788 5790 5792 5794 5795 5797 5798 5800 5801 5803 5804 5805 5805 5806 5805 5805 5805 5805 5804 5804 5803 5802 5800 5799 5798 5797 5795 5794 5792 5791 5789 5787 5785 5782 5780 5777 5775 5772